When you browse on this site, cookies collect data to enhance your experience and personalize the content and advertising you see.
Visit our Privacy Policy to learn more. By continuing to use the site, you agree to this use of cookies and data.
  • In United Kingdom
  • List of Countries
  • For 7 days
  • Water Temperature
  • Weather Map
  • Weather Widgets
  • user-avatar
    Login

    Hourly Weather Sorata

    Today, 22 February, Saturday

    Time Temperature Precipitation Wind Pressure Humidity
    00:00 +12°C° 0.1 mm 1 mps 542 mmHg 95%
    01:00 +12°C° 0.1 mm 1 mps 541 mmHg 95%
    02:00 +12°C° 0 mm 1 mps 541 mmHg 94%
    03:00 +12°C° 0 mm 1 mps 541 mmHg 94%
    04:00 +12°C° 0 mm 1 mps 541 mmHg 93%
    05:00 +13°C° 0.1 mm 1 mps 541 mmHg 92%
    06:00 +13°C° 0.1 mm 1 mps 542 mmHg 90%
    07:00 +14°C° 0.1 mm 1 mps 543 mmHg 88%
    08:00 +14°C° 0.1 mm 1 mps 543 mmHg 88%
    09:00 +15°C° 0.1 mm 2 mps 543 mmHg 87%
    10:00 +15°C° 0.1 mm 2 mps 543 mmHg 86%
    11:00 +15°C° 0.2 mm 2 mps 543 mmHg 87%
    12:00 +16°C° 0.2 mm 3 mps 542 mmHg 87%
    13:00 +16°C° 0.2 mm 3 mps 542 mmHg 88%
    14:00 +16°C° 0.1 mm 3 mps 541 mmHg 89%
    15:00 +14°C° 0.1 mm 3 mps 540 mmHg 90%
    16:00 +14°C° 0.1 mm 3 mps 540 mmHg 92%
    17:00 +13°C° 0 mm 3 mps 540 mmHg 93%
    18:00 +13°C° 0 mm 3 mps 540 mmHg 94%
    19:00 +12°C° 0 mm 3 mps 540 mmHg 96%
    20:00 +12°C° 0.2 mm 3 mps 541 mmHg 96%
    21:00 +12°C° 0.2 mm 3 mps 541 mmHg 96%
    22:00 +12°C° 0.2 mm 3 mps 541 mmHg 96%
    23:00 +12°C° 0.6 mm 3 mps 541 mmHg 96%

    Tomorrow, 23 February, Sunday

    Time Temperature Precipitation Wind Pressure Humidity
    00:00 +13°C° 0.6 mm 2 mps 541 mmHg 97%
    01:00 +13°C° 0.6 mm 2 mps 541 mmHg 98%
    02:00 +13°C° 0.3 mm 2 mps 541 mmHg 97%
    03:00 +13°C° 0.3 mm 2 mps 541 mmHg 97%
    04:00 +12°C° 0.3 mm 1 mps 540 mmHg 96%
    05:00 +13°C° 0 mm 1 mps 541 mmHg 95%
    06:00 +13°C° 0 mm 1 mps 541 mmHg 93%
    07:00 +13°C° 0 mm 1 mps 542 mmHg 91%
    08:00 +14°C° 0.1 mm 1 mps 542 mmHg 89%
    09:00 +15°C° 0.1 mm 2 mps 543 mmHg 87%
    10:00 +16°C° 0.1 mm 2 mps 543 mmHg 84%
    11:00 +17°C° 0.3 mm 3 mps 542 mmHg 84%
    12:00 +17°C° 0.3 mm 3 mps 542 mmHg 85%
    13:00 +17°C° 0.3 mm 3 mps 541 mmHg 85%
    14:00 +17°C° 0.2 mm 3 mps 540 mmHg 87%
    15:00 +16°C° 0.2 mm 3 mps 540 mmHg 89%
    16:00 +16°C° 0.2 mm 3 mps 539 mmHg 91%
    17:00 +15°C° 0 mm 2 mps 539 mmHg 92%
    18:00 +15°C° 0 mm 2 mps 539 mmHg 94%
    19:00 +14°C° 0 mm 2 mps 539 mmHg 96%
    20:00 +14°C° 0 mm 1 mps 540 mmHg 95%
    21:00 +14°C° 0 mm 1 mps 540 mmHg 93%
    22:00 +14°C° 0 mm 1 mps 541 mmHg 92%
    23:00 +14°C° 0 mm 1 mps 540 mmHg 94%

    Day after tomorrow, 24 February, Monday

    Time Temperature Precipitation Wind Pressure Humidity
    00:00 +14°C° 0 mm 1 mps 540 mmHg 95%
    01:00 +13°C° 0 mm 1 mps 540 mmHg 96%
    02:00 +13°C° 0.1 mm 2 mps 540 mmHg 97%
    03:00 +13°C° 0.1 mm 2 mps 539 mmHg 97%
    04:00 +13°C° 0.1 mm 2 mps 539 mmHg 97%
    05:00 +14°C° 0 mm 2 mps 540 mmHg 96%
    06:00 +14°C° 0 mm 1 mps 540 mmHg 95%
    07:00 +14°C° 0 mm 1 mps 540 mmHg 94%
    08:00 +15°C° 0.1 mm 1 mps 541 mmHg 90%
    09:00 +16°C° 0.1 mm 2 mps 541 mmHg 86%
    10:00 +17°C° 0.1 mm 2 mps 541 mmHg 82%
    11:00 +18°C° 0.3 mm 3 mps 541 mmHg 82%
    12:00 +18°C° 0.3 mm 3 mps 541 mmHg 81%
    13:00 +19°C° 0.3 mm 4 mps 540 mmHg 80%
    14:00 +18°C° 0.1 mm 4 mps 540 mmHg 82%
    15:00 +17°C° 0.1 mm 3 mps 539 mmHg 84%
    16:00 +17°C° 0.1 mm 3 mps 538 mmHg 87%
    17:00 +16°C° 0 mm 2 mps 538 mmHg 89%
    18:00 +15°C° 0 mm 1 mps 538 mmHg 91%
    19:00 +14°C° 0 mm 1 mps 538 mmHg 93%
    20:00 +14°C° 0 mm 1 mps 539 mmHg 92%
    21:00 +14°C° 0 mm 2 mps 540 mmHg 90%
    22:00 +13°C° 0 mm 3 mps 540 mmHg 89%
    23:00 +14°C° 0 mm 2 mps 540 mmHg 90%

    25 February, Tuesday

    Time Temperature Precipitation Wind Pressure Humidity
    00:00 +13°C° 0 mm 1 mps 539 mmHg 91%
    01:00 +12°C° 0 mm 1 mps 539 mmHg 92%
    02:00 +13°C° 0 mm 1 mps 539 mmHg 92%
    03:00 +13°C° 0 mm 1 mps 539 mmHg 92%
    04:00 +13°C° 0 mm 1 mps 538 mmHg 91%
    05:00 +14°C° 0 mm 1 mps 539 mmHg 88%
    06:00 +15°C° 0 mm 1 mps 540 mmHg 84%
    07:00 +16°C° 0 mm 1 mps 541 mmHg 81%
    08:00 +18°C° 0.1 mm 1 mps 541 mmHg 79%
    09:00 +18°C° 0.1 mm 2 mps 542 mmHg 78%
    10:00 +19°C° 0.1 mm 3 mps 542 mmHg 76%
    11:00 +19°C° 0.6 mm 3 mps 541 mmHg 78%
    12:00 +19°C° 0.6 mm 3 mps 541 mmHg 79%
    13:00 +19°C° 0.6 mm 3 mps 540 mmHg 81%
    14:00 +19°C° 0.3 mm 3 mps 539 mmHg 83%
    15:00 +18°C° 0.3 mm 3 mps 539 mmHg 86%
    16:00 +18°C° 0.3 mm 3 mps 538 mmHg 88%
    17:00 +17°C° 0.2 mm 2 mps 538 mmHg 90%
    18:00 +16°C° 0.2 mm 2 mps 539 mmHg 93%
    19:00 +16°C° 0.2 mm 2 mps 539 mmHg 95%
    20:00 +15°C° 0 mm 2 mps 539 mmHg 95%
    21:00 +15°C° 0 mm 1 mps 540 mmHg 94%
    22:00 +14°C° 0 mm 1 mps 540 mmHg 94%
    23:00 +14°C° 0.1 mm 1 mps 540 mmHg 94%

    26 February, Wednesday

    Time Temperature Precipitation Wind Pressure Humidity
    00:00 +14°C° 0.1 mm 1 mps 540 mmHg 94%
    01:00 +14°C° 0.1 mm 1 mps 540 mmHg 94%
    02:00 +14°C° 0.1 mm 1 mps 540 mmHg 93%
    03:00 +14°C° 0.1 mm 1 mps 539 mmHg 92%
    04:00 +14°C° 0.1 mm 1 mps 539 mmHg 92%
    05:00 +15°C° 0.1 mm 1 mps 540 mmHg 90%
    06:00 +15°C° 0.1 mm 1 mps 541 mmHg 88%
    07:00 +16°C° 0.1 mm 2 mps 541 mmHg 86%
    08:00 +16°C° 0.5 mm 2 mps 542 mmHg 85%
    09:00 +17°C° 0.5 mm 3 mps 542 mmHg 84%
    10:00 +18°C° 0.5 mm 3 mps 542 mmHg 83%
    11:00 +19°C° 0.5 mm 4 mps 542 mmHg 77%
    12:00 +20°C° 0.5 mm 4 mps 542 mmHg 72%
    13:00 +21°C° 0.5 mm 4 mps 542 mmHg 66%
    14:00 +20°C° 0.3 mm 4 mps 541 mmHg 69%
    15:00 +20°C° 0.3 mm 4 mps 541 mmHg 72%
    16:00 +19°C° 0.3 mm 4 mps 540 mmHg 75%
    17:00 +18°C° 0.1 mm 3 mps 540 mmHg 81%
    18:00 +16°C° 0.1 mm 3 mps 540 mmHg 87%
    19:00 +15°C° 0.1 mm 2 mps 539 mmHg 94%
    20:00 +14°C° 0.1 mm 2 mps 540 mmHg 93%
    21:00 +14°C° 0.1 mm 2 mps 540 mmHg 93%
    22:00 +14°C° 0.1 mm 2 mps 541 mmHg 93%
    23:00 +14°C° 0.1 mm 2 mps 540 mmHg 93%

    27 February, Thursday

    Time Temperature Precipitation Wind Pressure Humidity
    00:00 +13°C° 0.1 mm 1 mps 540 mmHg 92%
    01:00 +13°C° 0.1 mm 1 mps 540 mmHg 91%
    02:00 +13°C° 0.1 mm 1 mps 540 mmHg 91%
    03:00 +14°C° 0.1 mm 1 mps 540 mmHg 92%
    04:00 +14°C° 0.1 mm 1 mps 540 mmHg 92%
    05:00 +14°C° 0.2 mm 1 mps 541 mmHg 90%
    06:00 +15°C° 0.2 mm 1 mps 542 mmHg 89%
    07:00 +15°C° 0.2 mm 1 mps 542 mmHg 88%
    08:00 +16°C° 0.8 mm 2 mps 543 mmHg 88%
    09:00 +16°C° 0.8 mm 2 mps 543 mmHg 88%
    10:00 +17°C° 0.8 mm 2 mps 543 mmHg 88%
    11:00 +17°C° 0.4 mm 3 mps 542 mmHg 88%
    12:00 +17°C° 0.4 mm 3 mps 542 mmHg 88%
    13:00 +17°C° 0.4 mm 3 mps 541 mmHg 88%
    14:00 +16°C° 0.2 mm 3 mps 540 mmHg 89%
    15:00 +16°C° 0.2 mm 3 mps 540 mmHg 90%
    16:00 +14°C° 0.2 mm 3 mps 539 mmHg 92%
    17:00 +14°C° 0 mm 3 mps 539 mmHg 93%
    18:00 +14°C° 0 mm 2 mps 539 mmHg 95%
    19:00 +14°C° 0 mm 2 mps 540 mmHg 96%
    20:00 +14°C° 0 mm 2 mps 540 mmHg 95%
    21:00 +14°C° 0 mm 1 mps 541 mmHg 93%
    22:00 +14°C° 0 mm 1 mps 541 mmHg 92%
    23:00 +14°C° 0.1 mm 1 mps 541 mmHg 92%
    Show more